Hourly Data Report for October 19, 2018

MONTREAL INTL A
QUEBEC
Current Station Operator: NAVCAN

45°28'14.000" N
73°44'27.000" W
36.00 m
7025251
71627
YUL

Download Data

Hourly Data (October 2018)
Hourly Data Report for October 19, 2018
TIME
LST
Temp Definition
°C
Dew Point Definition
°C
Rel Hum Definition
%
Precip. Amount Definition
mm

Wind Dir Definition
10's deg

Wind Spd Definition
km/h
Visibility Definition
km
Stn Press Definition
kPa
Hmdx Definition


Wind Chill Definition


Weather Definition


00:00 4.5 -2.8 59   24 20 24.1 101.64     LegendNANA
01:00 4.8 -1.9 61   23 21 24.1 101.57     Cloudy
02:00 5.1 -1.2 64   24 27 24.1 101.49     LegendNANA
03:00 5.6 -1.2 61   24 31 24.1 101.41     LegendNANA
04:00 5.1 -0.8 66   24 25 24.1 101.37     Mostly Cloudy
05:00 5.6 -0.4 65   24 23 24.1 101.33     LegendNANA
06:00 5.7 1.3 73   22 22 24.1 101.24     LegendNANA
07:00 6.2 2.1 75   23 23 24.1 101.22     Mainly Clear
08:00 7.9 3.1 72   23 28 24.1 101.16     LegendNANA
09:00 9.3 3.8 68   23 30 48.3 101.08     LegendNANA
10:00 11.1 4.9 65   23 28 48.3 100.96     Mainly Clear
11:00 12.6 4.3 57   23 34 48.3 100.86     LegendNANA
12:00 13.9 5.0 55   22 30 48.3 100.75     LegendNANA
13:00 14.4 5.8 56   22 40 48.3 100.62     Mainly Clear
14:00 15.3 6.1 54   22 42 48.3 100.54     LegendNANA
15:00 15.7 6.5 54   22 31 48.3 100.41     LegendNANA
16:00 15.2 6.6 56   23 32 48.3 100.38     Mostly Cloudy
17:00 14.3 6.5 59   23 30 48.3 100.32     LegendNANA
18:00 13.9 5.8 58   23 33 24.1 100.29     LegendNANA
19:00 13.8 5.5 57   21 28 24.1 100.15     Cloudy
20:00 13.5 5.6 58   22 17 24.1 100.04     LegendNANA
21:00 13.2 5.7 60   21 17 24.1 99.96     LegendNANA
22:00 13.1 6.2 62   21 17 24.1 99.86     Cloudy
23:00 13.0 5.2 59   22 21 24.1 99.75     LegendNANA

Notes on Data Quality.

Legend

  • E = Estimated
  • M = Missing
  • NA = Not Available*
  • [empty] = Indicates an unobserved value
Date modified: